www.pogodaiklimat.ru

Погода и климат >> Архив погоды >> Россия >> Ханты-Мансийский АО >> Угут


АРХИВ ПОГОДЫ в Угуте

Время (UTC), дата Ветер
(напр.,м/с)
 
Видим.   Явления Облачность Т
(С)
Тd
(С)
f
(%)
Тe
(С)
Тes
(С)
Комфортность P
(гПа)
Po
(гПа)
Тmin
(С)
Tmax
(С)
R
(мм)
R24
(мм)
S
(см)
00 18.03 штиль 0 10 км [диам. изморози 5 мм] ясно -17.5 -20.0 81 -18 -18 1032.2 1025.3
03 18.03 Ю 1 10 км [диам. изморози 7 мм] 10/0
[Cs]
-13.7 -15.8 84 -16 -15 1032.4 1025.7 -17.7 69
06 18.03 ЮЗ 3 10 км 3/0
[Ci fib]
-5.9 -12.0 62 -11 -7 1032.2 1025.6
09 18.03 ЮЗ 2 10 км 9/0
[Ac trans]
-1.7 -10.6 51 -5 -3 1031.8 1025.3
12 18.03 ЮЗ 2 10 км 9/0
[Ac trans]
-2.5 -10.3 55 -6 -6 1031.1 1024.7
15 18.03 Ю 1 10 км 9/0
[Ac trans]
-3.7 -10.2 61 -6 -6 1030.5 1024.0 -1.5
18 18.03 ЮЗ 2 10 км 8/0
[Ac trans]
-2.3 -10.1 55 -6 -6 1028.9 1022.5
21 18.03 ЮЗ 2 10 км {снег} 10/0
[Ac und]
-3.2 -5.6 83 -7 -7 1028.7 1022.2
00 19.03 ЮЗ 1 10 км {снег} 4/4 600 м
[Cb cap]
-5.7 -7.2 89 -8 -8 1028.7 1022.2
03 19.03 ЮЗ 2 10 км 10/0
[Ac und]
-3.9 -7.8 74 -8 -7 1029.2 1022.7 -6.2 0.0 69
06 19.03 З 2 10 км 9/0
[Ac trans]
-0.6 -7.4 60 -4 -2 1029.6 1023.2
09 19.03 ЮЗ 1 10 км 10/0
[Ac As]
+2.2 -7.2 50 +1 +3 1029.5 1023.2
12 19.03 ЮЗ 2 10 км 9/9 1000 м
[Sc]
+1.9 -7.2 51 -1 -1 1029.6 1023.3
15 19.03 штиль 0 10 км 9/0
[Ac trans]
+0.2 -6.5 61 -0 -0 1029.7 1023.4 +2.5
18 19.03 ЮЗ 1 10 км 10/0
[Cs]
-2.8 -6.6 75 -5 -5 1029.5 1023.0
21 19.03 Ю 1 10 км 9/0
[Ac trans]
-2.0 -6.9 69 -4 -4 1029.1 1022.7
00 20.03 Ю 1 10 км 4/0
[Ac trans]
-2.8 -7.7 69 -5 -5 1028.5 1022.0
03 20.03 ЮЗ 2 10 км 8/0
[Ac trans Ci sp]
-2.7 -9.6 59 -6 -5 1028.0 1021.5 -3.5 69
06 20.03 ЮЗ 3 10 км 8/0
[Ac lent Ci sp]
+1.7 -11.1 38 -2 +2 1027.0 1020.7
09 20.03 ЮЗ 5 10 км 8/0
[Ci fib]
+3.3 -12.7 30 -1 +1 1025.2 1018.9
12 20.03 ЮЗ 3 10 км 10/0
[Cs]
+3.5 -13.4 28 +1 +1 1023.6 1017.4
15 20.03 Ю 2 10 км 8/0
[Ci fib]
-0.3 -13.3 37 -3 -3 1022.5 1016.1 +4.3
18 20.03 ЮЗ 4 10 км 10/0
[Cs]
-1.4 -12.7 42 -6 -6 1021.3 1014.9
21 20.03 ЮЗ 4 10 км 10/0
[Cs]
-2.9 -12.9 46 -8 -8 1020.2 1013.8
00 21.03 Ю 3 10 км 10/0
[Cs]
-3.6 -11.3 55 -8 -8 1018.3 1011.9
03 21.03 ЮЗ 5-10
{10}
10 км 10/0
[As trans]
-4.1 -10.5 61 -11 -10 1017.6 1011.2 -4.4 67
06 21.03 ЮЗ 5
{10}
10 км 10/0
[Cs]
-1.4 -10.3 51 -7 -5 1016.9 1010.5
09 21.03 ЮЗ 4
{10}
10 км 10/0
[Ac As]
+1.5 -9.7 43 -3 -2 1016.0 1009.7
12 21.03 ЮЗ 3
{10}
10 км 10/0
[Ac As]
+1.9 -9.4 43 -2 -1 1014.9 1008.6
15 21.03 ЮЗ 4
{11}
4000 м слаб. снег {метель} 10/0
[As op]
-0.9 -3.7 81 -6 -6 1014.6 1008.3 +2.1 0.0
18 21.03 ЮЗ 2 4000 м слаб. снег {метель} 10/0 300 м
[As op]
-1.4 -2.6 92 -5 -5 1014.1 1007.8
21 21.03 ЮЗ 2 4000 м слаб. снег 10/0 300 м
[As op]
-1.6 -2.7 92 -6 -6 1013.7 1007.3
00 22.03 ЮЗ 2 10 км {снег} 10/10 1000 м
[Sc]
-1.5 -2.6 92 -5 -5 1014.5 1008.2
03 22.03 З 2 4000 м дымка 10/10 300 м
[St]
-1.4 -2.4 93 -5 -5 1016.0 1009.7 -1.9 2 69
06 22.03 ЮЗ 3 10 км дымка 10/0
[As op]
-0.6 -1.9 91 -6 -5 1017.3 1011.0
09 22.03 ЮЗ 3 10 км 10/0
[Ac As]
-0.2 -2.3 86 -5 -4 1018.1 1011.8
12 22.03 ЮЗ 3 10 км 10/0
[As op]
-0.5 -2.7 85 -5 -5 1018.4 1012.1
15 22.03 З 3 10 км 10/6 1000 м
[Sc As op]
-1.2 -2.9 88 -6 -6 1018.9 1012.6 0.0
18 22.03 З 2 10 км 10/0
[As op]
-1.7 -3.1 90 -6 -6 1019.3 1012.9
21 22.03 ЮЗ 1 10 км 10/0
[As op]
-2.1 -3.4 91 -4 -4 1019.5 1013.1
00 23.03 штиль 0 10 км 10/0
[As op]
-2.8 -4.0 91 -4 -4 1019.5 1013.2
03 23.03 ЮВ 1 10 км 10/10 300 м
[St]
-2.8 -4.4 89 -5 -5 1019.6 1013.2 -3.0 69
06 23.03 В 1 10 км 9/8 1000 м
[Sc Ac trans]
+0.4 -3.7 74 -1 -0 1019.4 1013.1
09 23.03 ЮВ 1 10 км 10/3 600 м
[Cu hum Cs]
+1.8 -3.3 69 0 +4 1018.4 1012.1
12 23.03 ЮЗ 2 10 км 8/0
[Ac trans Ci fib]
+2.0 -2.9 70 -1 -1 1017.6 1011.3
15 23.03 штиль 0 10 км 3/0
[Ci fib]
-3.1 -4.2 92 -4 -4 1017.9 1011.5 +3.0
18 23.03 штиль 0 10 км 10/0
[Cs]
-4.0 -5.0 93 -5 -5 1017.4 1011.0
21 23.03 Ю 1 10 км слаб. снег 10/0
[As op]
-2.5 -3.4 94 -5 -5 1016.8 1010.4
00 24.03 З 1 10 км слаб. снег 10/0
[As op]
-1.9 -2.9 93 -4 -4 1017.1 1010.7
03 24.03 СЗ 2 10 км {снег} 4/4 600 м
[Cb cap]
-2.0 -3.2 91 -6 -5 1018.4 1012.0 -4.7 1 70
06 24.03 З 4 10 км {снег} 6/6 600 м
[Cu hum]
+2.1 -4.8 60 -2 -1 1019.0 1012.7
09 24.03 З 1 10 км 8/8 600 м
[Cb cap]
+3.0 -3.2 64 +2 +3 1019.5 1013.2
12 24.03 З 2 10 км 8/5 600 м
[Cb cap Ac trans]
+2.0 -7.6 49 -1 -0 1020.2 1013.9
15 24.03 штиль 0 10 км 1/0
[Ac trans]
-2.5 -6.7 73 -3 -3 1020.8 1014.4 +3.2
18 24.03 штиль 0 н/о н/о -4.2 -6.3 85 -5 -5 1021.4 1015.0

 

Местоположение метеостанции Угут (Ханты-Мансийский АО, Россия): широта 60.50 долгота 74.02 высота над уровнем моря 48 м.

В архиве по умолчанию представлена погода в Угуте за последнюю неделю. Архивные данные за месяц целиком и за предыдущие месяцы, начиная с января 2011 года, Вы можете получить, выбрав интересующий диапазон дат из раскрывающегося списка и нажав кнопку "Ввод!".


*Определитесь, кто Вы:
робот инопланетянин человек

Внимание! Время в таблицах - всемирное. Для получения местного времени необходимо прибавить поправку, которая равна 5 ч.

Смотрите также архив погоды в соседних городах и на ближайших метеорологических станциях:

Погода в Сургуте (Ханты-Мансийский АО, Россия) (98 км)
Погода в Нефтеюганске (Ханты-Мансийский АО, Россия) (99 км)
Погода в Таурово (Ханты-Мансийский АО, Россия) (110 км)
Погода в Нижневартовске (Ханты-Мансийский АО, Россия) (148 км)
Погода в Салыме (Ханты-Мансийский АО, Россия) (148 км)
Погода в Сытомино (Ханты-Мансийский АО, Россия) (172 км)
Погода в Когалыме (Ханты-Мансийский АО, Россия) (194 км)
Погода в Александровском (Томская область, Россия) (211 км)
Погода в Радужном (Ханты-Мансийский АО, Россия) (255 км)
Погода в Новом Васюгане (Томская область, Россия) (256 км)

Пояснения к столбцам:

Ветер - указаны скорость ветра в м/с - средняя за 10 мин, порывы в срок и между сроками (в фигурных скобках) и направление, откуда дует ветер: С - северный, СВ - северо-восточный, В - восточный, ЮВ - юго-восточный, Ю - южный, ЮЗ - юго-западный, З - западный, СЗ - северо-западный.
Видимость - горизонтальная дальность видимости в метрах или километрах. При видимости от 1 до 10 км при отсутствии осадков обычно наблюдается дымка, при ухудшении видимости до 1 км и менее - туман. В сухую погоду видимость может ухудшаться дымом, пылью или мглою.
Явления - указаны атмосферные явления, наблюдавшиеся в срок или в последний час перед сроком; фигурными скобками обозначены явления, наблюдавшиеся между сроками (за 1-3 часа до срока); квадратными скобками обозначены град или гололедные отложения с указанием их диаметра в мм.
Облачность - указаны через наклонную черту общая и нижняя облачность в баллах и высота нижней границы облаков в метрах; квадратными скобками обозначены формы облаков: Ci - перистые, Cs - перисто-слоистые, Cc - перисто-кучевые, Ac - высококучевые, As - высокослоистые, Sc - слоисто-кучевые, Ns - слоисто-дождевые, Cu - кучевые, Cb - кучево-дождевые. Подробнее классификацию облаков см. в Атласе облаков (PDF).
T - Температура воздуха - температура, измеренная на высоте 2 м над землей.
Td - Температура точки росы - температура, при понижении до которой содержащийся в воздухе водяной пар достигнет насыщения.
f - Относительная влажность воздуха - влажноcть воздуха, измеренная на высоте 2 м над землей.
Te - Эффективная температура - температура, которую ощущает одетый по сезону человек в тени. Характеристика душности погоды. При расчете учитывается влияние влажности воздуха и скорости ветра на теплоощущения человека.
Tes - Эффективная температура на солнце - температура, которую ощущает человек, с поправкой на солнечный нагрев. Характеристика знойности погоды. Зависит от высоты солнца над горизонтом, облачности и скорости ветра. Ночью, в пасмурную погоду, а также при ветре 12 м/с и более поправка равна нулю.
P - Атмосферное давление - приведенное к уровню моря атмосферное давление.
Po - Атмосферное давление - измеренное на уровне метеостанции атмосферное давление.
Tmin - Минимальная температура - минимум температуры воздуха на высоте 2 м над землей.
Tmax - Максимальная температура - максимум температуры воздуха на высоте 2 м над землей.
R - Количество осадков - Количество выпавших осадков за период времени, мм. При наведении курсора мыши на число - период времени, за который выпало указанное количество осадков.
R24 - Количество осадков - Количество выпавших осадков за 24 часа, мм.
S - Снежный покров - Высота снежного покрова, см. При наведении курсора мыши на число - состояние снежного покрова и степень покрытия местности в баллах.